Taos, NM

8:13 AM MDT on May 26, 2017 (GMT -0600)
Taos Municipal

Weather History for KSKX - December, 2012

Change the Weather History Date:

Monday, December 24, 2012

  Actual Average Record
Temperature  
Mean Temperature 22 °F -  
Max Temperature 41 °F 38 °F 51 °F (2005)
Min Temperature 3 °F 7 °F -18 °F (2004)
Degree Days  
Heating Degree Days 43    
Moisture  
Dew Point 15 °F    
Average Humidity 70    
Maximum Humidity 93    
Minimum Humidity 39    
Precipitation  
Precipitation 0.00 in - - ()
Sea Level Pressure  
Sea Level Pressure 29.83 in    
Wind  
Wind Speed 6 mph (WSW)    
Max Wind Speed 16 mph    
Max Gust Speed 23 mph    
Visibility 9 miles    
Events      
Averages and records for this station are not official NWS values.
T = Trace of Precipitation, MM = Missing Value Source: NWS Daily Summary

Daily Weather History Graph

Daily Weather History Graph

Search for Another Location

Airport or City:

Trip Planner

Search our weather history database for the weather conditions in past years. The results will help you decide how hot, cold, wet, or windy it might be!

Date:

Astronomy

Dec. 24, 2012 Rise Set
Actual Time 7:12 AM MST 4:52 PM MST
Civil Twilight 6:43 AM MST 5:21 PM MST
Nautical Twilight 6:11 AM MST 5:54 PM MST
Astronomical Twilight 5:39 AM MST 6:25 PM MST
Moon 2:20 PM MST (12/24) 3:55 AM MST (12/24)
Length of Visible Light 10h 38m
Length of Day
9h 40m
Waxing Gibbous, 89% of the Moon is Illuminated
Dec 24
Waxing Gibbous
Dec 28
Full
Jan 4
Last Quarter
Jan 11
New
Jan 18
First Quarter

Hourly Weather History & Observations

Time (MST) Temp. Windchill Dew Point Humidity Pressure Visibility Wind Dir Wind Speed Gust Speed Precip Events Conditions
12:15 AM 14.0 °F 6.5 °F 10.4 °F 86% 30.06 in 10.0 mi NW 4.6 mph - N/A   Clear
12:35 AM 12.2 °F - 10.4 °F 92% 30.04 in 10.0 mi Calm Calm - N/A   Clear
12:55 AM 15.8 °F - 10.4 °F 79% 30.02 in 10.0 mi Calm Calm - N/A   Clear
1:15 AM 14.0 °F 5.1 °F 8.6 °F 79% 30.01 in 10.0 mi North 5.8 mph - N/A   Clear
1:35 AM 14.0 °F 3.9 °F 8.6 °F 79% 30.01 in 10.0 mi NNE 6.9 mph - N/A   Clear
1:55 AM 14.0 °F 2.9 °F 8.6 °F 79% 30.01 in 10.0 mi NNE 8.1 mph - N/A   Clear
2:15 AM 12.2 °F -1.0 °F 6.8 °F 79% 30.01 in 10.0 mi North 10.4 mph - N/A   Clear
2:35 AM 12.2 °F -1.0 °F 6.8 °F 79% 30.01 in 10.0 mi NNE 10.4 mph - N/A   Clear
2:55 AM 12.2 °F -0.2 °F 6.8 °F 79% 30.01 in 10.0 mi North 9.2 mph - N/A   Clear
3:15 AM 12.2 °F 4.3 °F 6.8 °F 79% 30.00 in 10.0 mi NNE 4.6 mph - N/A   Clear
3:35 AM 8.6 °F 0.1 °F -0.4 °F 67% 30.00 in 10.0 mi North 4.6 mph - N/A   Clear
3:55 AM 8.6 °F -1.3 °F 6.8 °F 92% 29.98 in 10.0 mi North 5.8 mph - N/A   Clear
4:15 AM 6.8 °F -3.5 °F 3.2 °F 85% 29.97 in 10.0 mi East 5.8 mph - N/A   Clear
4:35 AM 10.4 °F -1.5 °F 6.8 °F 85% 29.96 in 10.0 mi East 8.1 mph - N/A   Clear
4:55 AM 6.8 °F - -2.2 °F 67% 29.96 in 10.0 mi Calm Calm - N/A   Clear
5:15 AM 12.2 °F - 8.6 °F 85% 29.96 in 10.0 mi Calm Calm - N/A   Clear
5:35 AM 5.0 °F - -5.8 °F 61% 29.95 in 10.0 mi Calm Calm - N/A   Mostly Cloudy
5:55 AM 10.4 °F - 6.8 °F 85% 29.94 in 10.0 mi Calm Calm - N/A   Scattered Clouds
6:15 AM 6.8 °F - -2.2 °F 67% 29.93 in 10.0 mi Calm Calm - N/A   Mostly Cloudy
6:35 AM 6.8 °F - 1.4 °F 79% 29.93 in 10.0 mi Calm Calm - N/A   Mostly Cloudy
6:55 AM 5.0 °F -2.1 °F 1.4 °F 85% 29.93 in 10.0 mi WNW 3.5 mph - N/A   Partly Cloudy
7:15 AM 3.2 °F -9.1 °F -0.4 °F 85% 29.95 in 10.0 mi NNW 6.9 mph - N/A   Mostly Cloudy
7:35 AM 8.6 °F 0.1 °F 6.8 °F 92% 29.93 in 10.0 mi NNE 4.6 mph - N/A   Overcast
7:55 AM 12.2 °F - 8.6 °F 85% 29.94 in 10.0 mi Calm Calm - N/A   Overcast
8:15 AM 15.8 °F - 10.4 °F 79% 29.94 in 10.0 mi Calm Calm - N/A   Overcast
8:35 AM 19.4 °F - 12.2 °F 74% 29.95 in 10.0 mi Calm Calm - N/A   Overcast
8:55 AM 21.2 °F - 15.8 °F 80% 29.94 in 10.0 mi Calm Calm - N/A   Overcast
9:15 AM 24.8 °F - 15.8 °F 69% 29.94 in 10.0 mi Calm Calm - N/A   Scattered Clouds
9:35 AM 28.4 °F 24.6 °F 15.8 °F 59% 29.95 in 10.0 mi WSW 3.5 mph - N/A   Mostly Cloudy
9:55 AM 28.4 °F - 17.6 °F 64% 29.95 in 10.0 mi Calm Calm - N/A   Overcast
10:15 AM 33.8 °F - 19.4 °F 56% 29.95 in 10.0 mi Calm Calm - N/A   Mostly Cloudy
10:35 AM 35.6 °F 30.7 °F 15.8 °F 44% 29.94 in 10.0 mi WSW 5.8 mph - N/A   Mostly Cloudy
10:55 AM 35.6 °F 30.7 °F 15.8 °F 44% 29.93 in 10.0 mi WSW 5.8 mph - N/A   Clear
11:15 AM 35.6 °F 30.7 °F 17.6 °F 48% 29.90 in 10.0 mi WSW 5.8 mph - N/A   Clear
11:35 AM 37.4 °F 31.4 °F 17.6 °F 45% 29.87 in 10.0 mi WSW 8.1 mph - N/A   Clear
11:55 AM 37.4 °F 31.4 °F 15.8 °F 41% 29.84 in 10.0 mi SW 8.1 mph - N/A   Clear
12:15 PM 39.2 °F 32.5 °F 15.8 °F 39% 29.84 in 10.0 mi WSW 10.4 mph - N/A   Clear
12:35 PM 37.4 °F 29.8 °F 15.8 °F 41% 29.82 in 10.0 mi WSW 11.5 mph - N/A   Scattered Clouds
12:55 PM 39.2 °F 32.5 °F 17.6 °F 42% 29.80 in 10.0 mi WSW 10.4 mph - N/A   Overcast
1:15 PM 39.2 °F 31.6 °F 17.6 °F 42% 29.80 in 10.0 mi WSW 12.7 mph - N/A   Overcast
1:35 PM 39.2 °F 32.0 °F 17.6 °F 42% 29.77 in 10.0 mi WSW 11.5 mph - N/A   Scattered Clouds
1:55 PM 39.2 °F 32.5 °F 15.8 °F 39% 29.76 in 10.0 mi West 10.4 mph - N/A   Clear
2:15 PM 39.2 °F 30.5 °F 17.6 °F 42% 29.74 in 10.0 mi WSW 16.1 mph - N/A   Scattered Clouds
2:35 PM 41.0 °F 33.9 °F 17.6 °F 39% 29.73 in 10.0 mi West 12.7 mph - N/A   Mostly Cloudy
2:55 PM 39.2 °F 30.5 °F 15.8 °F 39% 29.73 in 10.0 mi WSW 16.1 mph - N/A   Partly Cloudy
3:15 PM 39.2 °F 31.6 °F 17.6 °F 42% 29.73 in 10.0 mi WSW 12.7 mph - N/A   Clear
3:35 PM 37.4 °F 29.8 °F 15.8 °F 41% 29.71 in 10.0 mi WSW 11.5 mph - N/A   Clear
3:55 PM 37.4 °F 29.8 °F 15.8 °F 41% 29.71 in 10.0 mi SW 11.5 mph - N/A   Clear
4:15 PM 35.6 °F 28.0 °F 15.8 °F 44% 29.71 in 10.0 mi SW 10.4 mph - N/A   Partly Cloudy
4:35 PM 33.8 °F 25.8 °F 15.8 °F 48% 29.70 in 10.0 mi SW 10.4 mph - N/A   Partly Cloudy
4:55 PM 32.0 °F 22.5 °F 15.8 °F 51% 29.69 in 10.0 mi SW 12.7 mph - N/A   Clear
5:15 PM 33.8 °F 25.3 °F 17.6 °F 52% 29.67 in 10.0 mi WSW 11.5 mph - N/A   Clear
5:35 PM 32.0 °F 23.0 °F 19.4 °F 60% 29.67 in 10.0 mi WSW 11.5 mph - N/A   Clear
5:55 PM 32.0 °F 24.2 °F 19.4 °F 60% 29.67 in 10.0 mi WSW 9.2 mph - N/A   Clear
6:15 PM 30.2 °F 23.4 °F 21.2 °F 69% 29.68 in 10.0 mi East 6.9 mph - N/A   Mostly Cloudy
6:35 PM 32.0 °F 23.0 °F 23.0 °F 69% 29.68 in 10.0 mi South 11.5 mph - N/A   Overcast
6:55 PM 30.2 °F 20.2 °F 26.6 °F 86% 29.69 in 2.5 mi WSW 12.7 mph 23.0 mph N/A   Mostly Cloudy
7:15 PM 30.2 °F 20.8 °F 26.6 °F 86% 29.68 in 2.0 mi SW 11.5 mph - N/A   Overcast
7:35 PM 30.2 °F 23.4 °F 26.6 °F 86% 29.68 in 1.5 mi SW 6.9 mph - N/A   Overcast
7:55 PM 28.4 °F 24.6 °F 26.6 °F 93% 29.68 in 0.8 mi SW 3.5 mph - N/A   Overcast
8:15 PM 30.2 °F 22.6 °F 26.6 °F 86% 29.67 in 0.5 mi SW 8.1 mph - N/A   Overcast
8:35 PM 28.4 °F 23.3 °F 26.6 °F 93% 29.66 in 1.5 mi SSW 4.6 mph - N/A   Overcast
8:55 PM 28.4 °F 24.6 °F 26.6 °F 93% 29.66 in 5.0 mi SSW 3.5 mph - N/A   Overcast
9:15 PM 28.4 °F 22.2 °F 26.6 °F 93% 29.66 in 5.0 mi SSW 5.8 mph - N/A   Overcast
9:35 PM 28.4 °F 21.2 °F 26.6 °F 93% 29.66 in 8.0 mi SW 6.9 mph - N/A   Overcast
9:55 PM 28.4 °F 20.4 °F 26.6 °F 93% 29.67 in 1.0 mi WSW 8.1 mph - N/A   Overcast
10:15 PM 28.4 °F 21.2 °F 26.6 °F 93% 29.67 in 3.0 mi WSW 6.9 mph - N/A   Overcast
10:35 PM 28.4 °F 21.2 °F 26.6 °F 93% 29.67 in 5.0 mi WSW 6.9 mph - N/A   Overcast
10:55 PM 28.4 °F 22.2 °F 26.6 °F 93% 29.67 in 9.0 mi SW 5.8 mph - N/A   Overcast
11:15 PM 28.4 °F 24.6 °F 26.6 °F 93% 29.67 in 10.0 mi WSW 3.5 mph - N/A   Overcast
11:35 PM 28.4 °F 22.2 °F 26.6 °F 93% 29.67 in 4.0 mi SSW 5.8 mph - N/A   Overcast
11:55 PM 28.4 °F 21.2 °F 26.6 °F 93% 29.67 in 4.0 mi SW 6.9 mph - N/A   Overcast